Showing default

CHUBUSAT 3, 41339

Orbit data source: Space-Track

CHUBUSAT 3, 41339 is a Japanese payload satellite in LEO that was launched on Wed, 17 Feb 2016 UTC via an H-IIA 202 launch vehicle from the Tanegashima Space Center (TNSTA). Payload-class satellites include a variety of spacecraft equipped with specific instruments for various scientific and technological missions. These include communications satellites like Starlink; space stations such as the ISS; scientific satellites like the Hubble; Earth observation satellites from companies like Planet Labs, Umbra, and HawkEye 360; GPS; miniature CubeSats for education and research; and military/defense satellites.

Loading next visibility...
Identifier
41339, 2016-012C
Orbit
LEO
Country
Flag of JPJP / JPN
Related business
Manufacturer
NAG/MHIME
Mission
Non-operational Amateur Imaging
Bus & Motor
Unknown
Mass
52 kg wet, 52 kg dry
Launch date (UTC)
2016-02-17 (10 years ago)
Launch vehicle
H-IIA 202
Launch site
Tanegashima Space Center (TNSTA)
Object type
Payload
Rocket body
Debris
Shape & HBR
Box, 0.3 m
Radar Cross Section
0.480 m², Medium (>0.1 m² and < 1m²)

Expand to show TLE details & history
Last TLE update: 10 hours ago

TLE from 10 hours ago
0 CHUBUSAT 3
1 41339U 16012C   25259.23313963  .00005220  00000-0  26629-3 0  9990
2 41339  31.0065 318.0655 0010256 161.4979 198.6035 15.15095092526569
Epoch: 2025-09-16T05:35Z
TLE epoch observation values (Epoch: 2025-09-16T05:35:43.264Z)
Latitude
0.00001°
Longitude
-121.29114°
Altitude
525.901 km
Speed
7.599 km/s
True Right ascension
21h 12m 15s
True Declination
0° 00' 00"
Sunlit
Object was in full shadow at epoch
Visualization orbit readout
Latitude
Unknown
Longitude
Unknown
Altitude
Unknown
Speed
Unknown
Apparent Right ascension
Unknown
Apparent Declination
Unknown
Sunlit
N/A
Visualization observer readout
Local Sidereal Time
08:24:17
Azimuth
Unknown
Elevation
Unknown
Doppler factor
Unknown
Orbital elements
Apogee altitude
531.618 km
Perigee altitude
517.459 km
Semi-major axis
6,902.676 km
Eccentricity
0.00103
Inclination
31.0065°
RAAN
318.0655°
Arg. of periapsis
161.4979°
True anomaly
198.56605°
Mean anomaly
198.6035°
Eccentric anomaly
198.58477°
Mean motion
3.78457 °/min
Orbital period
95.12 mins
BSTAR
0.00026629
Loading maneuver chart data...
Computing Atmospheric mass density...
Loading historical data...
Loading historical data...
Loading historical data...
Loading historical data...
Loading historical data...
Loading historical data...
Loading historical data...

Documentation

Showing up to 5 results
|